Location: Unspecified
(41.5000°N, 0.0000°E)
Time: 04:14:23
(UTC+00:00)

Vanguard 3 - Pass Details

Date: 24 June 2019
Orbit: 507 x 3264 km, 33.4° (Epoch: 22 July)

Event Time Altitude Azimuth Distance (km) Brightness Sun altitude
Rises 09:27:02 0° 222° (SW) 7,047 11.8 53.0°
Reaches altitude 10° 09:32:43 10° 215° (SW) 5,774 11.5 54.0°
Maximum altitude 09:46:44 35° 159° (SSE) 3,143 11.1 56.5°
Drops below altitude 10° 09:55:51 10° 98° (E) 3,761 11.2 58.0°
Sets 09:58:40 0° 89° (E) 4,410 11.3 58.5°
